Погода в Озерном

Россия / Оренбургская область     51°06′14″N   60°54′13″E
темп.,
°C
ветер,
м/с
пор.,
м/с
влажн.,
%
обл.,
%
осадки,
мм/ч
давл.,
гПа
погр.,
м
5 августа, чт
чт523:00+28зсз472692 0.1 1012134
02:00+24ссз334288 0.0 101325
05:00+23ссз224738 0.0 101213
08:00+27с2340100 0.0 1012179
11:00+32вюв212789 0.0 1011664
14:00+36з251975 0.0 10103250
17:00+35з2416100 0.0 10091869
20:00+27вюв464097 0.3 1009102
6 августа, пт
пт623:00+27ю6133442 0.3 1008281
02:00+23в6846100 0.0 1008130
05:00+22ююв444551 0.0 100651
08:00+25з574095 0.2 1008297
11:00+26сз564871 0.6 1008803
14:00+29сз35366 0.0 10071615
17:00+30сз66325 0.0 10072545
20:00+24ссв610525 0.0 1009501
7 августа, сб
сб723:00+21ссв510540 0.0 1010315
02:00+18ссв410640 0.0 1011381
05:00+16с35755 0.0 1012113
08:00+19с6856100 0.0 1013553
11:00+23с673042 0.0 10131400
14:00+26ссз67218 0.0 10121710
17:00+27ссз67185 0.0 10122004
20:00+23с45255 0.0 101278
8 августа, вс
вс823:00+19св33340 0.0 101317
02:00+17ссз44390 0.0 101356
05:00+15ссв49505 0.0 1014180
08:00+18ссз68470 0.0 1015510
11:00+22ссз78330 0.0 10141352
14:00+25ссз911310 0.0 10131984
17:00+25с9103729 0.0 10132009
20:00+21ссв8106089 0.0 10151034
9 августа, пн
пн923:00+19ссз496888 0.0 1016332
02:00+19с510652 0.0 1015637
05:00+17с511770 0.0 1017347
08:00+19с69712 0.0 1018562
11:00+24с785328 0.0 10171411
14:00+28с563824 0.0 10172064
17:00+28с5534100 0.0 10172240
20:00+25с3441100 0.0 101767